Skip Page Navigation
NASA JPL Caltech
NASA Logo - Jet Propulsion Laboratory + View the NASA Portal
+ Center for Near-Earth Object Studies
JPL Home Earth Solar System Stars & Galaxies Technology
JPL Solar System Dynamics
BODIES ORBITS EPHEMERIDES TOOLS PHYSICAL DATA DISCOVERY FAQ SITE MAP
JPL Small-Body Database Browser
Search: [ help ]  
5833 Peterson (1991 PQ)
Classification: Outer Main-belt Asteroid          SPK-ID: 2005833
Ephemeris | Orbit Diagram | Orbital Elements | Mission Design | Physical Parameters | Discovery Circumstances | Close-Approach Data ]

[ show orbit diagram ]
Orbital Elements at Epoch 2459200.5 (2020-Dec-17.0) TDB
Reference: JPL 38 (heliocentric ecliptic J2000)
 Element Value Uncertainty (1-sigma)   Units 
e .03222044771241247 3.2507e-08  
a 3.494538808379797 2.2941e-08 au
q 3.3819432034254 1.1549e-07 au
i 19.37786232523971 4.707e-06 deg
node 306.6445710803678 1.2308e-05 deg
peri 111.4250458077789 8.5964e-05 deg
M 81.23938093192176 8.3991e-05 deg
tp 2458662.047579978601
(2019-Jun-27.54757998)
0.00055581 TDB
period 2386.070265234332
6.53
2.3496e-05
6.433e-08
d
yr
n .1508756909824887 1.4857e-09 deg/d
Q 3.607134413334194 2.368e-08 au
  Orbit Determination Parameters
   # obs. used (total)      2367  
   data-arc span      17640 days (48.30 yr)  
   first obs. used      1972-10-05  
   last obs. used      2021-01-21  
   planetary ephem.      DE431  
   SB-pert. ephem.      SB431-N16  
   condition code      0  
   norm. resid. RMS      .37362  
   source      ORB  
   producer      Otto Matic  
   solution date      2021-Feb-24 01:27:16  

Additional Information
 Earth MOID = 2.44088 au 
 Jupiter MOID = 1.56055 au 
 T_jup = 3.034 
[ show covariance matrix ]

Ephemeris | Orbit Diagram | Orbital Elements | Mission Design | Physical Parameters | Discovery Circumstances | Close-Approach Data ]

Physical Parameter Table
Parameter Symbol Value Units Sigma Reference Notes
absolute magnitude H 11.05   n/a E2021B10  
diameter diameter 27.077 km 0.435 urn:nasa:pds:neowise_diameters_albedos::2.0[mainbelt] (http://adsabs.harvard.edu/abs/2014ApJ...791..121M)  
rotation period rot_per 27.441 h n/a LCDB (Rev. 2020-October); Warner et al., 2009 Result based on less than full coverage, so that the period may be wrong by 30 percent or so.
Published Reference List:
[Chang, C.K.; Ip, W.-H.; Lin, H.-W.; Cheng, Y.C.; et al. (2015) Astrophys. J. Supp. Ser. 219, A27.]
[Waszczak, A.; Chang, C.-K.; Ofeck, E.O.; Laher, F.; et al. (2015) Astron. J. 150, A75.]
geometric albedo albedo 0.105   0.021 urn:nasa:pds:neowise_diameters_albedos::2.0[mainbelt] (http://adsabs.harvard.edu/abs/2014ApJ...791..121M)  

5833 Peterson           Discovered 1991 Aug. 5 by H. E. Holt at Palomar.
Colin A. Peterson (b. 1977), a research support specialist at Cornell University, and responsible for designing sequences for the NEAR spacecraft Multi-Spectral Imager and Near-Infrared Spectrometer team, has developed innovative methods for obtaining spectral maps of (433) Eros. The name was suggested by J. Veverka.
NOTE: some special characters may not display properly (any characters within {} are an attempt to place the proper accent above a character)
Reference: 19990928/MPCPages.arcLast Updated: 2010-06-11

[ hide close-approach data ]
Close-Approach Data   ...sorted by Date/Time (TDB)
Date/Time (TDB) Time Uncertainty
(days_HH:MM)
Body Nominal Distance (au) Minimum Distance (au) Maximum Distance (au) V-relative (km/s) V-infinity (km/s) JD (TDB) Time Uncertainty (minutes) Semi-major axis (km) Semi-minor axis (km) range-LOV angle (deg) N-sigma BP Orbit Ref. Reference Modified
1926-Feb-21 08:12 00:02 Jupiter 1.5194358938977 1.51943536068676 1.51943642712109 5.61446513572828 5.51428161044487 2424567.841612919 2.28770544397052 357.878333627839 20.2077046865001 87.3516548814911 3851522.90281503 T 38 CATAB v2.0f-lin.ifort 2021-Feb-24 01:27:21 2021-Feb-24 01:27
1955-May-03 19:55 00:02 Jupiter 1.83977495228751 1.83977443710876 1.83977546746669 6.1255163101503 6.0498893211288 2435231.330112726 1.54602608530479 244.128213886556 24.7010376142508 88.9053650989512 4471132.19072672 T 38 CATAB v2.0f-lin.ifort 2021-Feb-24 01:27:21 2021-Feb-24 01:27
1984-Jun-14 09:29 < 00:01 Jupiter 1.8114355027927 1.81143461660549 1.81143638898619 5.35339564552621 5.26532526580492 2445865.894903622 0.930364667454702 208.51771212286 22.2827195525158 79.4094901814454 3524957.78625825 T 38 CATAB v2.0f-lin.ifort 2021-Feb-24 01:27:21 2021-Feb-24 01:27
1998-Jul-05 16:12 < 00:01 Jupiter 1.80545005882742 1.80544930413372 1.80545081352194 5.00801821999651 4.91344597436525 2451000.175263810 0.656468845826301 184.733865318658 34.83700181792 85.2261630092046 3531578.88296268 T 38 CATAB v2.0f-lin.ifort 2021-Feb-24 01:27:21 2021-Feb-24 01:27
2013-Aug-24 22:46 < 00:01 Jupiter 1.90691423554341 1.90691369493737 1.90691477614966 5.69464220938751 5.61610007797412 2456529.448757409 0.253933368026733 68.4431811950758 19.9358420408644 -74.8748096179371 4016531.15224561 T 38 CATAB v2.0f-lin.ifort 2021-Feb-24 01:27:21 2021-Feb-24 01:27
2056-Oct-08 10:27 00:01 Jupiter 1.52517263906907 1.52517212912707 1.52517314901125 5.58957923650866 5.48932350847067 2472279.935284559 1.15741705318722 175.096916456185 24.654054329066 88.5859743950058 3866651.26074449 T 38 CATAB v2.0f-lin.ifort 2021-Feb-24 01:27:21 2021-Feb-24 01:27
2085-Dec-27 02:04 00:02 Jupiter 1.85678336628843 1.85678269447365 1.85678403810713 6.12075565712483 6.04576671018281 2482951.586234026 1.99770692131864 275.27233145504 28.9113109334848 86.5462076159349 4483340.55660908 T 38 CATAB v2.0f-lin.ifort 2021-Feb-24 01:27:21 2021-Feb-24 01:27
2115-Feb-13 15:55 00:03 Jupiter 1.70943733886756 1.70943497877791 1.70943969905429 5.4961818580876 5.40527698913138 2493591.163407688 3.05098038264882 669.901815893248 20.4767791910923 79.9486154627248 3582201.73437428 T 38 CATAB v2.0f-lin.ifort 2021-Feb-24 01:27:21 2021-Feb-24 01:27
2129-Mar-31 06:24 00:05 Jupiter 1.91903968005532 1.9190366533968 1.91904270682161 4.48265018684301 4.38308065765912 2498750.766555552 4.82615438685888 805.950047048936 61.9679115127085 78.869490718809 3170466.78737048 T 38 CATAB v2.0f-lin.ifort 2021-Feb-24 01:27:21 2021-Feb-24 01:27
2144-Apr-30 11:55 00:04 Jupiter 1.84723196525028 1.84723087962473 1.84723305094461 5.90445343735714 5.82627653148609 2504259.996573600 3.80032064591955 615.810139706543 19.909057360509 -85.169368667948 4256398.54053466 T 38 CATAB v2.0f-lin.ifort 2021-Feb-24 01:27:21 2021-Feb-24 01:27
2187-May-30 12:54 00:05 Jupiter 1.5541384542481 1.55413672931034 1.55414017923948 5.5227537262672 5.42317128338874 2519995.037207163 4.74250176069223 515.489957452029 37.2023835647592 -81.1605841634131 3795119.34133752 T 38 CATAB v2.0f-lin.ifort 2021-Feb-24 01:27:21 2021-Feb-24 01:27

Alternate Designations
 1991 PQ = 1972 TN2 = 1978 PO1 
Ephemeris | Orbit Diagram | Orbital Elements | Mission Design | Physical Parameters | Discovery Circumstances | Close-Approach Data ]
ABOUT SSD CREDITS/AWARDS PRIVACY/COPYRIGHT GLOSSARY LINKS
FirstGov 2021-Feb-25 03:44 UT
(server date/time)  
NASA Home Page
Site Manager:   Ryan S. Park
Webmaster  Alan B. Chamberlin